CCA0830 ZGGG-ZSNJ

Flight info

Callsign CCA0830
Flight time N/A
Altitude 31100
Route LMN G471 PLT A599 KAKIS
Aircraft A320/L-V/N

Departure

Time 2026-04-30 04:26
Airport Guangzhou Baiyun International Airport (ZGGG)

Arrival

Time N/A
Airport Nanjing Lukou International Airport (ZSNJ)
Time Latitude Longitude Altitude Speed Heading
2026-04-30 03:57 23.38025 113.29991 54 ft 0 kts 199°
2026-04-30 04:12 23.38035 113.29994 49 ft 3 kts 195°
2026-04-30 04:13 23.38055 113.30001 51 ft 3 kts 198°
2026-04-30 04:13 23.38074 113.30008 49 ft 3 kts 198°
2026-04-30 04:13 23.38093 113.30014 51 ft 3 kts 197°
2026-04-30 04:13 23.38112 113.30020 51 ft 3 kts 196°
2026-04-30 04:14 23.38131 113.30026 47 ft 3 kts 195°
2026-04-30 04:14 23.38149 113.30031 51 ft 3 kts 193°
2026-04-30 04:14 23.38169 113.30036 51 ft 3 kts 188°
2026-04-30 04:14 23.38189 113.30038 49 ft 3 kts 171°
2026-04-30 04:15 23.38202 113.30034 47 ft 1 kts 141°
2026-04-30 04:15 23.38203 113.30033 47 ft 1 kts 141°
2026-04-30 04:17 23.38197 113.30039 51 ft 3 kts 141°
2026-04-30 04:18 23.38178 113.30064 52 ft 6 kts 118°
2026-04-30 04:18 23.38162 113.30115 49 ft 8 kts 97°
2026-04-30 04:18 23.38147 113.30187 54 ft 11 kts 103°
2026-04-30 04:18 23.38108 113.30262 50 ft 12 kts 158°
2026-04-30 04:19 23.38015 113.30253 54 ft 15 kts 193°
2026-04-30 04:19 23.37924 113.30226 52 ft 10 kts 195°
2026-04-30 04:19 23.37842 113.30202 49 ft 14 kts 194°
2026-04-30 04:19 23.37740 113.30196 50 ft 12 kts 157°
2026-04-30 04:20 23.37657 113.30249 54 ft 15 kts 135°
2026-04-30 04:20 23.37618 113.30350 51 ft 15 kts 101°
2026-04-30 04:20 23.37593 113.30464 54 ft 17 kts 104°
2026-04-30 04:20 23.37569 113.30573 55 ft 15 kts 104°
2026-04-30 04:21 23.37540 113.30692 52 ft 16 kts 105°
2026-04-30 04:21 23.37491 113.30714 48 ft 6 kts 197°
2026-04-30 04:21 23.37439 113.30699 52 ft 10 kts 194°
2026-04-30 04:21 23.37359 113.30678 55 ft 14 kts 193°
2026-04-30 04:22 23.37258 113.30652 54 ft 14 kts 194°
2026-04-30 04:22 23.37149 113.30623 49 ft 18 kts 193°
2026-04-30 04:22 23.37064 113.30601 54 ft 16 kts 193°
2026-04-30 04:22 23.37002 113.30620 54 ft 8 kts 107°
2026-04-30 04:23 23.36984 113.30689 55 ft 4 kts 105°
2026-04-30 04:24 23.36982 113.30699 53 ft 3 kts 105°
2026-04-30 04:24 23.36973 113.30731 54 ft 6 kts 105°
2026-04-30 04:25 23.36983 113.30780 49 ft 7 kts 35°
2026-04-30 04:25 23.37042 113.30795 52 ft 10 kts 12°
2026-04-30 04:25 23.37302 113.30863 50 ft 80 kts 14°
2026-04-30 04:25 23.38092 113.31078 52 ft 150 kts 14°
2026-04-30 04:26 23.39267 113.31392 320 ft 186 kts 14°
2026-04-30 04:26 23.40542 113.31721 1077 ft 185 kts 14°
2026-04-30 04:26 23.41732 113.32035 2251 ft 173 kts 14°
2026-04-30 04:26 23.42959 113.32365 2842 ft 191 kts 13°
2026-04-30 04:27 23.44326 113.32730 3279 ft 214 kts 13°
2026-04-30 04:27 23.45846 113.33135 3785 ft 237 kts 13°
2026-04-30 04:27 23.47522 113.33585 4370 ft 257 kts 12°
2026-04-30 04:27 23.49265 113.34054 5069 ft 271 kts 11°
2026-04-30 04:28 23.51103 113.34546 5961 ft 274 kts 11°
2026-04-30 04:28 23.52919 113.35031 6756 ft 282 kts 10°
2026-04-30 04:28 23.54788 113.35532 7555 ft 287 kts 11°
2026-04-30 04:28 23.56696 113.36041 8345 ft 292 kts 10°
2026-04-30 04:29 23.58684 113.36573 9181 ft 297 kts 10°
2026-04-30 04:29 23.60700 113.37112 10008 ft 301 kts 11°
2026-04-30 04:29 23.62674 113.37969 10455 ft 322 kts 30°
2026-04-30 04:29 23.64366 113.39714 10670 ft 351 kts 53°
2026-04-30 04:30 23.65411 113.42182 11024 ft 368 kts 77°
2026-04-30 04:30 23.65573 113.44989 11709 ft 372 kts 96°
2026-04-30 04:30 23.65241 113.47809 12385 ft 377 kts 99°
2026-04-30 04:30 23.64911 113.50664 13068 ft 382 kts 97°
2026-04-30 04:31 23.64713 113.53579 13747 ft 388 kts 94°
2026-04-30 04:31 23.64630 113.56538 14364 ft 392 kts 91°
2026-04-30 04:31 23.64614 113.59490 14982 ft 396 kts 91°
2026-04-30 04:31 23.64628 113.62513 15590 ft 400 kts 90°
2026-04-30 04:32 23.64649 113.65556 16228 ft 404 kts 90°
2026-04-30 04:32 23.64663 113.67596 16608 ft 406 kts 90°
2026-04-30 04:32 23.64687 113.71618 17390 ft 411 kts 91°
2026-04-30 04:32 23.64703 113.74752 18010 ft 413 kts 91°
2026-04-30 04:33 23.64717 113.77918 18488 ft 419 kts 91°
2026-04-30 04:33 23.64729 113.81069 19012 ft 421 kts 91°
2026-04-30 04:33 23.64741 113.84271 19544 ft 422 kts 91°
2026-04-30 04:33 23.64752 113.87488 19984 ft 427 kts 91°
2026-04-30 04:34 23.64763 113.90735 20505 ft 429 kts 91°
2026-04-30 04:34 23.64772 113.93921 21004 ft 431 kts 91°
2026-04-30 04:34 23.64781 113.97206 21485 ft 434 kts 91°
2026-04-30 04:34 23.64789 114.00509 21980 ft 437 kts 91°
2026-04-30 04:35 23.64796 114.03832 22461 ft 440 kts 91°
2026-04-30 04:35 23.64804 114.07174 22946 ft 442 kts 91°
2026-04-30 04:35 23.64810 114.10540 23417 ft 445 kts 91°
2026-04-30 04:35 23.64815 114.13932 23825 ft 449 kts 91°
2026-04-30 04:36 23.64819 114.16189 24092 ft 450 kts 91°
2026-04-30 04:36 23.64824 114.20378 24570 ft 453 kts 91°
2026-04-30 04:36 23.64827 114.23764 24922 ft 456 kts 91°
2026-04-30 04:36 23.64899 114.27235 25285 ft 460 kts 84°
2026-04-30 04:37 23.65506 114.30466 25622 ft 462 kts 72°
2026-04-30 04:37 23.66670 114.33413 25924 ft 465 kts 59°
2026-04-30 04:37 23.68491 114.36226 26255 ft 465 kts 46°
2026-04-30 04:37 23.70819 114.38559 26595 ft 465 kts 34°
2026-04-30 04:38 23.73508 114.40522 26996 ft 464 kts 29°
2026-04-30 04:38 23.75328 114.41775 27169 ft 468 kts 30°
2026-04-30 04:38 23.77981 114.43672 27459 ft 471 kts 31°
2026-04-30 04:38 23.80585 114.45650 27791 ft 474 kts 33°
2026-04-30 04:39 23.83258 114.47774 28121 ft 477 kts 34°
2026-04-30 04:39 23.85845 114.49880 28414 ft 480 kts 34°
2026-04-30 04:39 23.88527 114.52085 28717 ft 482 kts 34°
2026-04-30 04:39 23.91027 114.54149 28999 ft 485 kts 34°
2026-04-30 04:40 23.93724 114.56374 29290 ft 488 kts 34°
2026-04-30 04:40 23.96185 114.58406 29543 ft 490 kts 34°
2026-04-30 04:40 23.98881 114.60629 29833 ft 493 kts 34°
2026-04-30 04:40 24.01479 114.62773 30121 ft 495 kts 34°
2026-04-30 04:41 24.04239 114.65050 30383 ft 497 kts 34°
2026-04-30 04:41 24.06896 114.67245 30628 ft 499 kts 34°
2026-04-30 04:41 24.09597 114.69477 30892 ft 501 kts 34°
2026-04-30 04:41 24.12384 114.71781 31140 ft 503 kts 34°
2026-04-30 04:42 24.15172 114.74087 31198 ft 502 kts 34°
2026-04-30 04:42 24.20703 114.78666 31206 ft 501 kts 34°
2026-04-30 04:43 24.26216 114.83055 31201 ft 499 kts 27°
2026-04-30 04:43 24.32532 114.86010 31206 ft 491 kts 11°
2026-04-30 04:44 24.39177 114.87666 31213 ft 490 kts
2026-04-30 04:44 24.45788 114.89309 31215 ft 490 kts
2026-04-30 04:45 24.52420 114.90957 31216 ft 489 kts
2026-04-30 04:45 24.58732 114.92523 31211 ft 490 kts
2026-04-30 04:46 24.65455 114.94188 31218 ft 490 kts
2026-04-30 04:46 24.72054 114.95819 31214 ft 491 kts
2026-04-30 04:47 24.78732 114.97467 31215 ft 491 kts
2026-04-30 04:47 24.85360 114.99077 31218 ft 491 kts
2026-04-30 04:48 24.92037 115.00699 31217 ft 492 kts
2026-04-30 04:48 24.98716 115.02326 31220 ft 492 kts
2026-04-30 04:49 25.05404 115.03959 31225 ft 493 kts
2026-04-30 04:49 25.12096 115.05595 31226 ft 493 kts
2026-04-30 04:50 25.18787 115.07232 31222 ft 493 kts
2026-04-30 04:50 25.25379 115.08846 31231 ft 494 kts
2026-04-30 04:51 25.32109 115.10276 31231 ft 487 kts 358°
2026-04-30 04:51 25.35468 115.10168 31231 ft 478 kts 346°
2026-04-30 04:51 25.38662 115.09339 31231 ft 468 kts 334°
2026-04-30 04:52 25.44522 115.06366 31228 ft 463 kts 328°
2026-04-30 04:52 25.50279 115.03282 31245 ft 463 kts 328°
2026-04-30 04:53 25.56091 115.00262 31246 ft 464 kts 329°
2026-04-30 04:53 25.61895 114.97274 31243 ft 464 kts 329°
2026-04-30 04:54 25.67701 114.94285 31242 ft 464 kts 329°
2026-04-30 04:54 25.73703 114.91597 31244 ft 474 kts 341°
2026-04-30 04:54 25.77000 114.91118 31235 ft 483 kts 353°
2026-04-30 04:55 25.80382 114.91381 31233 ft 492 kts
2026-04-30 04:55 25.83713 114.92391 31228 ft 500 kts 17°
2026-04-30 04:55 25.86853 114.94122 31224 ft 507 kts 29°
2026-04-30 04:55 25.89611 114.96458 31219 ft 512 kts 40°
2026-04-30 04:56 25.92062 114.99454 31219 ft 515 kts 50°
2026-04-30 04:56 25.96485 115.05672 31222 ft 516 kts 48°
2026-04-30 04:57 26.01226 115.11671 31232 ft 516 kts 45°
2026-04-30 04:57 26.06106 115.17513 31233 ft 515 kts 45°
2026-04-30 04:58 26.10997 115.23326 31231 ft 515 kts 45°
2026-04-30 04:58 26.15890 115.29157 31236 ft 515 kts 45°
2026-04-30 04:59 26.20710 115.34913 31232 ft 515 kts 45°
2026-04-30 04:59 26.25606 115.40769 31231 ft 515 kts 45°
2026-04-30 05:00 26.30459 115.46582 31226 ft 516 kts 45°
2026-04-30 05:00 26.35340 115.52437 31226 ft 516 kts 45°
2026-04-30 05:01 26.40233 115.58313 31223 ft 516 kts 45°
2026-04-30 05:01 26.45098 115.64164 31226 ft 516 kts 46°
2026-04-30 05:02 26.49981 115.70044 31218 ft 516 kts 46°
2026-04-30 05:02 26.54837 115.75901 31212 ft 517 kts 46°
2026-04-30 05:03 26.59743 115.81826 31236 ft 521 kts 46°
2026-04-30 05:03 26.64661 115.87773 31236 ft 521 kts 46°